Regional Weather Roundup
Issued by NWS

Home | Current Version | Previous Version | Graphics & Text | Print | Product List | Glossary On
Versions: 1 2 3 4 5 6 7 8 9 10 11 12 13 14 15 16 17 18 19 20 21 22 23 24 25 26 27 28 29 30 31 32 33 34 35 36 37 38 39 40 41 42 43 44 45 46 47 48 49 50
000
ASUS45 KBOU 311707
RWRCO

WEATHER ROUNDUP FOR COLORADO
NATIONAL WEATHER SERVICE DENVER/BOULDER CO
1100 AM MDT THU JUL 31 2014

NOTE: "FAIR" INDICATES FEW OR NO CLOUDS BELOW 12000 FEET WITH NO
SIGNIFICANT WEATHER AND/OR OBSTRUCTIONS TO VISIBILITY.

COZ001>005-013-030-031-311800-
...NORTHWEST COLORADO...

CITY           SKY/WX    TMP DP  RH WIND       PRES   REMARKS
CRAIG          MOSUNNY   60  54  80 W3        30.31F
HAYDEN         MOSUNNY   66  52  59 SW3       30.33S
MEEKER         MOSUNNY   67  52  58 VRB6      30.31F
MOUNT WERNER   NOT AVBL
STEAMBOAT SPGS MOSUNNY   65  51  62 SW3       30.34S
WALDEN         SUNNY     59  43  55 N3        30.42S
$$

COZ006>008-011-311800-
...WEST CENTRAL VALLEYS...

CITY           SKY/WX    TMP DP  RH WIND       PRES   REMARKS
GRAND JUNCTION SUNNY     74  56  53 CALM      30.20S
MONTROSE       SUNNY     74  56  53 SW6       30.27S
EAGLE          MOSUNNY   68  55  64 CALM      30.34F
RIFLE          MOSUNNY   72  54  53 VRB3      30.25F
DELTA          SUNNY     77  56  47 CALM      30.23S
NUCLA          MOSUNNY   73  52  46 W3        30.31R
$$

COZ017>023-064>068-311800-
...SOUTHWEST COLORADO...

CITY           SKY/WX    TMP DP  RH WIND       PRES   REMARKS
DURANGO        MOSUNNY   72  54  53 VRB7      30.32S
CORTEZ         MOSUNNY   79  53  40 CALM      30.26R
PAGOSA SPRINGS CLOUDY    67  51  56 S3        30.41R
TELLURIDE      MOSUNNY   66  48  52 W6        30.46R
WOLF CREEK PAS NOT AVBL
$$

COZ009-010-012-014-032>034-037-058>063-311800-
...CENTRAL COLORADO...

CITY           SKY/WX    TMP DP  RH WIND       PRES   REMARKS
ASPEN          PTSUNNY   65  53  65 N7        30.36F
BUENA VISTA    CLOUDY    61  49  65 CALM      30.42S
COPPER MTN     CLOUDY    54  46  76 W7        30.64S
BERTHOUD PASS  FOG       37  36  93 SE9       30.69R VSB<1/4
COTTONWOOD PAS CLOUDY    54  52  94 CALM      30.52S
GUNNISON       SUNNY     66  48  52 CALM      30.39S
KREMMLING      CLOUDY    61  46  59 CALM      30.40S
LEADVILLE      CLOUDY    54  47  77 SW5       30.49F
MONARCH PASS   CLOUDY    50  45  81 W7G17     30.75R
SALIDA         CLOUDY    62  53  72 CALM      30.47R
SUNLIGHT       PTSUNNY   55  50  82 CALM      30.58S
WILKERSON PASS DRZL/FOG  45  43  93 S7        30.64R VSB<1/4
$$

COZ069>075-311800-
...SAN LUIS VALLEY/SANGRE DE CRISTO MOUNTAINS...

CITY           SKY/WX    TMP DP  RH WIND       PRES   REMARKS
ALAMOSA        CLOUDY    64  54  69 S3        30.38S
LA VETA PASS   CLOUDY    52  50  93 CALM      30.56R
SAGUACHE       PTSUNNY   64  52  63 S5        30.41S
$$

COZ035-036-038>040-311800-
...NORTHERN COLORADO FRONT RANGE...

CITY           SKY/WX    TMP DP  RH WIND       PRES   REMARKS
DENVER INTL AP CLOUDY    66  54  65 NW3       30.32S
DMNS CITY PARK   N/A     66  55  68 SW7       30.32S
AURORA         PTSUNNY   62  55  77 W1        30.34S
FRONT RANGE AP NOT AVBL
ERIE MUNI ARPT CLOUDY    68  55  63 CALM      30.31S
BOULDER MUN AP CLOUDY    66  54  63 SE5       30.31R
CENTENNIAL     CLOUDY    62  53  72 VRB5      30.34S
BROOMFIELD     CLOUDY    64  55  72 S3        30.34R
FORT COLLINS   MOSUNNY   70  54  56 CALM      30.31S
LONGMONT       CLOUDY    70  56  60 E5        30.32S
$$

COZ041-046-047-076>085-087-088-311800-
...PIKES PEAK/PALMER DIVIDE AND SOUTHERN FOOTHILLS...

CITY           SKY/WX    TMP DP  RH WIND       PRES   REMARKS
COLO. SPRINGS  LGT RAIN  58  55  90 SE7       30.38R FOG
A. F. ACADEMY  CLOUDY    57  56  95 E1        30.38S
ELLICOTT       LGT RAIN  57  54  89 S6        30.36S
FALCON         CLOUDY    55  53  92 SE3       30.40S
FORT CARSON    LGT RAIN  59  55  88 SE6       30.36R
LIMON          CLOUDY    64  54  69 S7        30.32S
MONUMENT HILL  CLOUDY    54  50  87 E3        30.39S
TRINIDAD       CLOUDY    67  54  63 NE7       30.33R
$$

COZ042>045-048>051-090-091-311800-
...NORTHEAST COLORADO...

CITY           SKY/WX    TMP DP  RH WIND       PRES   REMARKS
GREELEY ARPT   NOT AVBL
AKRON          SUNNY     72  53  51 SW8       30.28R
BURLINGTON     PTSUNNY   73  53  49 SW8       30.26F
WRAY             N/A     80  51  36 SW9       30.23S
STERLING       SUNNY     77  59  53 SW7       30.23S
HOLYOKE        SUNNY     79  52  38 SW7       30.21F
FORT MORGAN    SUNNY     73  54  52 W5        30.28S
$$

COZ086-089-092>099-311800-
...SOUTHEAST COLORADO...

CITY           SKY/WX    TMP DP  RH WIND       PRES   REMARKS
PUEBLO         CLOUDY    64  58  80 E8        30.30R
LA JUNTA       CLOUDY    66  53  63 E6        30.28F
LAMAR          CLOUDY    70  57  63 CALM      30.25R
SPRINGFIELD      N/A     68  52  56 CALM      30.29R
$$



USA.gov is the U.S. government's official web portal to all federal, state and local government web resources and services.